Back to catalog

COSMOS 2251 DEB

LostLEO
NORAD 36459·DEBRIS·🇷🇺 Russia

Launched Jun 16, 1993 from Plesetsk Cosmodrome

Loading…

Next Passes (next 24 hours)

TLE

StaleSource: Space-Track

Epoch: Aug 10, 2026, 12:26 UTC

1 36459U 93036BBJ 26222.51814821  .00000766  00000-0  29667-3 0  9994
2 36459  74.0404 284.1080 0117558 321.4163  37.8626 14.28035340113173

Track COSMOS 2251 DEB in real time with AllMySat

Download on the App Store